Theta_e
310 313 321 320 319 318 316 319 320 320 321 322 322 322 322 323 322 322 320 319 319 320 320 321 320 321 325 325 326 326 327 328 329 331 330 331 330 330 330 329 328 328 328 327
312 312 316 321 321 320 319 319 320 321 321 321 321 321 322 322 322 323 324 321 320 323 324 322 320 322 323 325 325 327 328 329 332 330 329 330 329 330 329 329 328 326 327 328
310 313 314 319 318 322 322 320 319 320 321 321 320 322 321 323 324 324 323 322 322 322 324 322 321 320 323 324 325 328 328 330 332 330 330 329 328 328 328 328 328 327 326 326
309 310 313 315 317 316 317 317 318 319 321 323 321 325 323 323 323 323 323 320 319 322 324 323 321 319 322 324 326 327 329 332 332 330 330 329 328 327 328 328 327 327 328 328
311 311 312 314 314 314 317 318 319 319 321 322 324 324 322 322 324 322 321 319 322 321 324 323 321 320 322 324 326 329 330 332 332 331 330 329 329 328 327 327 328 328 327 328
310 312 312 313 315 315 317 317 319 319 320 324 323 323 323 323 323 323 323 321 322 322 323 321 321 322 323 324 328 329 330 332 331 329 329 327 326 327 327 328 328 328 329 328
312 312 313 313 313 313 314 312 316 321 323 326 322 323 325 323 322 322 322 323 323 323 324 323 322 321 320 325 329 329 330 330 330 329 328 326 327 326 328 329 329 329 328 329
315 314 313 314 314 314 313 314 320 324 326 325 323 326 325 322 322 322 322 323 323 324 324 323 322 322 321 327 328 329 329 329 329 329 328 326 326 326 327 327 329 329 330 329
315 314 315 314 314 313 313 317 317 320 323 323 323 323 323 324 326 325 326 325 324 324 324 324 322 321 322 325 328 329 328 328 329 329 329 327 327 326 325 327 328 329 329 329
314 314 315 315 314 313 312 313 317 315 323 327 325 326 326 324 327 327 327 325 324 323 323 323 323 320 322 325 327 328 328 327 329 329 329 329 329 330 328 327 328 328 329 329
314 314 317 315 315 315 313 314 313 314 317 323 324 324 322 323 326 327 325 324 324 323 324 324 323 320 322 324 326 327 328 327 328 328 329 329 329 329 327 327 328 328 329 329
315 312 315 316 315 316 315 314 313 317 319 318 321 323 321 321 324 326 325 324 323 322 323 323 322 318 320 323 324 325 328 327 328 328 328 329 330 328 327 326 329 328 329 329
315 316 316 315 318 315 315 314 314 313 318 322 322 323 319 320 319 326 324 324 323 322 322 321 318 319 319 321 322 326 327 327 327 327 329 329 330 329 328 326 327 327 329 329
310 315 318 316 317 317 315 315 313 314 315 318 323 323 325 324 326 327 326 324 323 323 324 322 320 320 320 321 323 325 325 326 326 325 329 329 329 329 328 327 327 327 328 329
309 313 318 319 315 316 319 315 315 316 316 318 319 322 322 323 324 327 325 323 323 323 323 323 321 320 319 320 322 324 325 325 325 325 328 329 329 328 328 328 329 327 328 328
308 310 316 322 318 316 316 318 315 315 317 319 322 321 320 322 325 327 326 325 325 324 324 323 321 320 319 320 321 323 324 325 325 324 326 328 328 329 330 328 328 327 329 329
310 311 311 321 320 316 316 316 317 317 319 320 322 322 320 322 327 327 326 325 325 324 324 324 322 320 320 321 322 323 324 325 325 324 324 327 328 329 329 330 326 327 329 327
310 310 311 315 317 318 317 316 316 317 318 321 321 320 322 322 326 326 326 325 325 324 324 323 322 319 320 321 322 323 324 324 324 324 323 326 327 328 329 330 326 326 326 326
309 308 311 320 318 317 318 319 316 316 318 320 322 319 322 322 319 322 325 325 325 323 323 323 323 320 319 321 322 323 322 323 323 323 323 326 325 328 327 330 325 323 323 327
315 309 311 321 319 319 320 320 319 320 320 320 322 319 321 321 324 322 322 324 324 323 322 322 322 320 319 319 322 322 319 320 322 323 323 323 324 328 327 327 324 323 322 323
313 312 313 316 320 323 320 320 321 322 321 321 320 319 318 324 324 322 321 325 324 322 321 323 322 320 319 319 322 322 319 318 321 322 323 322 323 326 328 327 325 323 322 321
315 320 318 318 323 325 318 319 322 318 317 323 319 319 317 321 318 318 322 325 324 322 321 322 322 320 319 320 321 321 319 319 320 321 322 321 322 323 327 328 327 325 322 320
316 316 318 319 324 317 315 315 314 313 314 317 325 321 319 318 317 317 320 324 324 323 322 323 322 320 319 320 321 321 320 319 319 320 321 321 321 322 324 327 327 326 324 322
313 314 318 317 321 317 315 314 313 313 314 314 323 325 317 318 318 318 319 323 324 323 322 323 323 319 319 320 321 322 320 319 318 318 319 320 321 321 322 325 326 326 325 324
311 315 315 315 318 315 315 313 313 313 314 314 315 325 323 318 319 320 320 323 324 324 323 324 323 320 320 321 321 322 321 319 318 318 318 318 319 320 321 322 325 325 325 325
312 313 315 318 315 315 314 313 312 313 313 313 315 325 326 324 319 318 321 323 324 324 323 324 323 322 321 321 321 321 321 320 319 317 317 317 317 319 320 322 323 325 324 324
Wind_Speed
9 8 19 26 21 13 10 6 10 17 2 8 7 11 11 14 8 11 11 10 11 7 3 15 25 34 35 31 26 21 17 12 6 3 1 2 4 6 8 8 8 10 9 9
6 30 21 16 15 15 10 11 16 19 6 6 8 14 14 13 10 10 12 9 6 3 6 9 19 27 33 31 24 18 14 11 7 2 1 3 6 5 7 8 7 9 6 7
29 21 17 20 16 16 18 18 17 20 3 7 7 13 13 17 5 8 10 9 6 11 11 13 15 21 30 28 23 19 15 10 6 2 1 3 4 4 5 5 8 3 0 5
19 19 23 17 24 16 19 14 17 18 4 8 4 5 5 9 12 7 9 9 9 6 8 12 13 14 25 25 21 17 14 11 7 3 1 4 4 3 4 6 6 4 3 5
12 18 22 19 19 21 17 12 9 13 8 5 8 3 7 4 8 10 9 9 4 8 11 13 15 19 25 24 22 19 14 10 8 3 2 5 3 2 2 2 4 3 3 6
9 9 23 21 17 20 8 2 2 11 3 10 18 7 5 7 9 7 5 3 7 8 11 9 13 21 22 22 21 18 14 11 6 4 3 4 3 1 2 5 5 5 3 5
5 13 5 11 15 7 13 6 4 3 5 6 8 5 14 7 9 9 9 7 9 12 14 15 15 9 20 23 23 18 14 11 7 4 3 4 3 1 4 5 6 4 1 3
14 11 22 14 14 13 14 14 6 5 3 5 7 7 7 10 9 9 4 7 9 10 9 15 14 12 18 25 24 20 15 11 9 5 4 4 1 2 4 6 3 3 2 2
12 16 2 19 5 16 16 15 13 2 3 2 5 6 8 1 3 3 8 10 9 11 13 14 10 15 20 26 25 22 16 12 11 6 5 3 1 2 4 6 4 4 4 3
2 4 8 18 20 17 9 10 7 5 6 5 4 3 6 5 7 5 7 9 8 7 9 10 10 13 22 28 26 22 18 15 13 8 5 2 1 2 3 4 5 5 4 5
4 2 3 9 15 19 8 11 5 7 5 5 1 6 7 9 9 12 10 10 11 12 12 12 11 16 25 27 25 22 19 16 14 10 7 2 2 3 3 3 5 6 6 5
6 5 5 11 5 19 19 17 9 11 9 5 3 7 5 11 14 14 14 10 8 9 11 12 11 15 19 25 23 21 22 19 16 11 9 4 4 5 5 4 4 5 7 6
8 5 7 6 2 3 23 21 22 3 3 7 11 10 3 4 8 10 11 9 9 9 9 8 8 11 15 21 23 23 24 21 16 14 12 7 6 6 5 5 5 5 7 8
6 5 13 14 3 5 13 22 9 16 9 8 11 3 4 6 9 7 7 8 11 12 13 12 10 11 15 20 24 25 25 22 19 15 14 10 7 7 8 9 9 8 7 10
4 4 5 18 20 9 4 12 22 18 14 16 14 9 9 12 12 12 10 8 10 11 12 13 13 11 13 18 22 26 25 24 21 18 16 13 9 8 9 8 7 9 8 9
5 4 7 7 18 24 18 5 20 22 14 12 7 8 9 11 6 10 14 14 15 15 16 15 13 13 13 20 23 27 26 27 24 21 17 15 11 10 10 8 5 5 6 7
5 3 9 6 14 8 15 26 12 12 18 18 15 11 7 4 12 15 13 16 17 17 16 17 17 15 19 24 26 27 29 28 27 25 19 17 15 12 10 11 9 8 10 7
9 1 2 5 2 11 18 12 18 11 8 14 3 11 15 14 16 17 18 21 16 15 16 15 14 16 23 26 28 29 30 30 29 27 23 20 18 13 12 16 15 13 11 8
17 5 3 3 4 5 7 4 12 9 12 11 17 9 11 14 7 3 11 17 21 20 18 16 25 26 24 29 29 30 30 30 27 28 27 24 20 16 15 18 18 15 11 11
11 11 6 2 4 8 5 14 2 5 13 9 14 10 10 12 11 7 13 14 13 15 13 14 23 24 26 28 32 29 26 28 26 29 30 27 24 21 19 19 19 16 14 13
3 4 9 5 4 4 18 20 8 13 2 18 14 12 10 13 10 12 16 17 18 17 16 22 25 27 29 32 34 26 25 27 36 35 32 29 27 25 22 20 21 19 16 14
2 4 3 4 5 3 18 7 7 11 16 15 13 11 10 15 9 7 16 19 17 14 12 21 20 22 28 34 34 26 27 32 34 35 33 31 30 27 24 23 23 22 20 18
3 2 2 3 3 2 10 5 8 12 13 15 14 12 13 16 9 11 11 14 16 17 15 24 23 21 26 33 34 29 28 32 35 34 34 33 31 30 28 27 25 25 24 22
3 4 3 6 2 10 14 9 15 15 14 17 13 13 8 8 11 12 11 12 14 14 15 23 22 17 20 30 33 36 33 36 35 34 34 34 34 32 31 30 29 28 27 25
3 3 0 6 9 15 2 16 18 21 21 21 20 13 7 7 8 12 12 13 14 15 16 24 22 21 26 31 30 31 37 37 32 33 33 33 33 34 32 33 33 33 30 29
1 2 1 2 12 8 11 15 18 18 21 23 19 16 15 11 2 4 10 14 14 14 18 18 23 23 25 30 30 33 38 40 34 28 28 30 29 32 31 30 29 30 31 29
Wind_Direction
172 196 205 207 206 225 236 222 246 260 193 233 245 263 272 278 296 267 260 244 243 239 195 164 160 167 165 167 165 166 159 152 162 190 252 320 328 304 286 285 302 310 289 248
167 226 207 204 208 217 241 247 253 283 272 245 271 269 276 278 265 239 261 261 249 199 146 143 147 153 160 164 164 163 155 154 162 148 26 325 322 310 297 281 307 314 316 222
203 225 200 203 206 203 222 230 246 250 333 265 284 283 284 283 250 260 246 234 225 204 165 156 153 154 160 161 163 159 156 165 167 152 50 348 352 314 304 281 323 336 73 179
230 224 196 198 212 197 224 215 242 259 276 264 129 284 295 285 303 287 258 238 241 172 146 149 149 155 158 162 161 157 160 170 173 186 305 351 341 313 301 309 323 344 205 208
210 184 212 211 205 200 230 224 226 247 234 258 248 270 264 233 284 281 265 247 216 155 146 153 154 157 161 161 160 159 165 171 184 195 319 345 343 312 321 342 343 342 242 227
214 202 201 213 202 208 206 248 261 252 239 254 263 187 226 235 224 258 246 223 143 128 125 126 141 155 157 159 161 163 167 173 182 182 24 28 79 99 7 344 346 337 284 232
163 222 223 176 206 173 202 130 254 275 219 229 237 189 245 247 233 224 260 180 153 147 145 151 159 152 153 161 166 169 171 173 167 158 54 88 102 36 355 357 359 352 248 182
203 210 211 179 197 193 212 182 172 200 209 193 183 230 247 214 231 230 212 149 144 147 159 159 160 155 161 167 171 175 176 171 176 160 106 111 89 18 19 1 17 35 59 80
200 229 180 188 150 173 201 206 181 30 291 132 220 280 323 32 261 160 144 144 166 164 159 156 156 158 165 172 178 181 177 180 183 164 136 140 85 43 23 30 57 81 54 46
276 193 218 202 197 202 173 161 174 200 204 219 267 219 220 212 223 165 155 175 166 141 148 151 163 161 173 179 182 185 180 186 182 170 149 138 125 44 22 57 78 76 69 76
200 146 263 196 203 182 175 179 177 156 199 174 207 254 209 206 185 187 197 190 158 172 163 163 168 170 179 183 184 186 184 184 184 178 173 161 114 55 62 78 105 82 78 96
284 209 207 235 250 194 204 198 188 194 194 240 164 260 238 198 195 185 191 174 170 173 160 166 166 161 171 182 184 185 185 186 187 181 179 168 120 110 86 87 119 87 74 96
330 275 251 339 211 183 199 198 215 149 101 190 204 252 191 213 197 205 165 162 163 152 152 157 148 165 175 182 183 181 184 188 181 174 172 162 140 127 96 97 102 99 94 90
335 280 234 218 238 139 196 204 173 194 217 211 226 186 177 183 159 161 170 169 164 166 172 169 164 175 177 183 181 181 184 185 176 176 171 166 157 142 123 98 103 110 110 104
33 276 307 266 252 275 189 189 201 204 198 202 228 201 212 190 172 190 181 146 152 166 175 180 174 179 174 179 183 183 185 186 180 178 173 173 161 153 141 136 119 111 115 118
347 283 323 259 243 241 249 248 202 215 209 227 194 223 205 204 179 146 170 179 177 183 186 182 178 178 178 182 186 183 186 188 185 182 180 173 165 160 151 151 141 135 161 121
295 336 351 278 230 239 252 239 225 208 206 198 208 222 152 152 169 176 174 188 183 187 186 184 183 183 183 185 186 183 188 189 187 185 181 175 167 167 167 156 150 138 141 131
254 84 239 276 203 206 247 222 223 213 215 215 159 177 178 178 188 184 188 183 190 188 189 190 185 184 186 186 187 186 187 189 190 187 181 182 175 174 168 168 159 153 152 144
221 181 265 251 249 275 235 234 195 176 245 212 212 206 189 185 113 225 195 191 188 187 192 189 186 184 176 182 185 184 180 185 186 187 185 185 181 170 165 167 164 156 151 144
252 188 195 276 237 212 32 331 346 119 239 208 210 190 179 140 179 219 185 194 199 200 182 178 177 174 173 181 181 176 175 175 184 189 190 187 184 176 168 170 170 165 160 150
90 126 225 262 287 296 345 325 296 183 258 321 209 185 169 180 184 198 184 191 192 185 182 170 166 175 179 176 177 176 176 182 191 194 192 189 188 184 179 172 175 170 164 163
351 313 182 199 240 252 349 17 49 313 320 302 285 199 178 187 179 169 175 187 183 177 153 166 166 176 174 176 175 178 188 190 188 191 192 192 191 189 186 179 178 176 169 168
208 197 323 271 267 47 347 345 321 320 322 321 308 305 211 182 180 171 182 180 182 173 174 175 173 164 172 177 180 182 190 185 184 187 189 194 193 192 191 185 182 182 181 175
218 223 238 310 39 333 313 317 341 338 330 321 316 297 231 198 175 179 165 179 176 176 174 172 159 163 172 180 185 192 182 185 182 182 191 195 194 194 195 194 192 190 188 189
214 229 207 281 286 307 216 333 329 330 332 347 343 357 336 219 190 168 175 173 176 175 170 170 173 173 180 180 184 183 183 180 180 183 188 192 194 196 197 200 200 200 203 202
169 255 283 326 310 290 279 304 316 331 337 340 342 351 8 19 37 169 173 173 168 170 171 175 180 175 175 178 179 181 183 183 181 181 184 188 189 192 197 197 201 208 212 211